This demonstration page uses our WeatherBlox Daily Observations layout. Learn more.

Left ArrowRight Arrow

Hourly Observations for April 11, 2016

Temp ( °F °C ) Dew Point ( °F °C ) Humidity (%) Winds ( mph kmh ) Pressure ( in mb ) Visibility ( mi km ) Precip ( " mm )
12:51 am 00:51 Cloudy 48 8.9 47 8.3 96 96 SE 3 6 29.99 1016 10 16 0.00 0.03
1:51 am 01:51 Mostly Clear 47 8.3 46 7.8 97 97 E 6 9 29.99 1016 10 16 0.00 0.00
2:51 am 02:51 Mostly Cloudy 47 8.3 45 7.2 93 93 E 6 9 30.01 1016 10 16 0.00 0.00
3:51 am 03:51 Cloudy with Light Rain 48 8.9 46 7.8 93 93 SE 3 6 30.04 1017 10 16 0.00 0.03
4:51 am 04:51 Clear 45 7.2 44 6.7 97 97 Calm 30.04 1017 10 16 0.00 0.03
5:51 am 05:51 Clear 44 6.7 43 6.1 96 96 ENE 3 6 30.04 1017 10 16 0.00 0.00
6:51 am 06:51 Partly Cloudy with Mist and Fog 46 7.8 46 7.8 100 100 SE 6 9 30.07 1018 3 5 0.00 0.00
7:51 am 07:51 Sunny 50 10 46 7.8 86 86 ESE 5 7 30.07 1018 10 16 0.00 0.00
8:51 am 08:51 Sunny 54 12.2 46 7.8 75 75 Calm 30.06 1018 10 16 0.00 0.00
9:51 am 09:51 Sunny 58 14.4 44 6.7 60 60 Calm 30.06 1018 10 16 0.00 0.00
10:51 am 10:51 Sunny 60 15.6 40 4.4 47 47 Calm 30.06 1018 10 16 0.00 0.00
11:51 am 11:51 Sunny 63 17.2 43 6.1 48 48 WNW 5 7 30.02 1017 10 16 0.00 0.00
12:51 pm 12:51 Sunny 64 17.8 41 5 43 43 Calm 30.00 1016 10 16 0.00 0.00
1:51 pm 13:51 Sunny 68 20 39 3.9 35 35 W 6 9 29.97 1015 10 16 0.00 0.00
2:51 pm 14:51 Sunny 70 21.1 39 3.9 32 32 VRB 5 7 29.94 1014 10 16 0.00 0.00
3:51 pm 15:51 Sunny 69 20.6 38 3.3 32 32 Calm 29.93 1014 10 16 0.00 0.00
4:51 pm 16:51 Sunny 69 20.6 37 2.8 31 31 SSW 5 7 29.93 1013 10 16 0.00 0.00
5:51 pm 17:51 Sunny 69 20.6 35 1.7 29 29 Calm 29.92 1013 10 16 0.00 0.00
6:51 pm 18:51 Clear 67 19.4 39 3.9 36 36 WSW 3 6 29.92 1013 10 16 0.00 0.00
7:51 pm 19:51 Clear 64 17.8 44 6.7 48 48 WNW 6 9 29.93 1013 10 16 0.00 0.00
8:51 pm 20:51 Clear 61 16.1 48 8.9 63 63 W 5 7 29.95 1014 10 16 0.00 0.00
9:51 pm 21:51 Clear 60 15.6 46 7.8 60 60 NW 7 11 29.95 1014 10 16 0.00 0.00
10:51 pm 22:51 Mostly Cloudy 60 15.6 47 8.3 62 62 NNW 7 11 29.96 1015 10 16 0.00 0.00
11:51 pm 23:51 Mostly Cloudy 60 15.6 45 7.2 58 58 W 7 11 29.96 1014 10 16 0.00 0.00

Powered by AerisWeather